Location: Minneapolis
(45.0000°N, 93.0000°W)
Time: 22:38:11
(UTC-05:00)

Envisat - Pass Details

Date: 08 March 2018
Orbit: 764 x 766 km, 98.2° (Epoch: 21 June)

Event Time Altitude Azimuth Distance (km) Brightness Sun altitude
Rises 18:37:56 0° 136° (SE) 3,218 5.8 -5.9°
Reaches altitude 10° 18:40:27 10° 126° (SE) 2,296 5.0 -6.4°
Maximum altitude 18:44:49 30° 66° (ENE) 1,343 3.8 -7.2°
Drops below altitude 10° 18:49:12 10° 6° (N) 2,310 5.4 -7.9°
Sets 18:51:44 0° 356° (N) 3,240 6.3 -8.4°
